Date String (YYYY-MM-DD hh:mm:ss) UTC,Instrument flags,Ambient pressure (hPa),Sample flow (lpm),Bypass flow (lpm),Sample temperature (°C),Ambient temperature (°C),ASC tube jacket temperature (°C),LED temperature (°C),Box temperature (°C),Sample RH (%),Span deviation,Mass concentration (μg/m³),Mass concentration (μg/m³),Mass concentration (μg/m³)
DateTimeUTC,F1_M11,P_M11,Q1_M11,Q2_M11,T1_M11,T2_M11,T3_M11,T4_M11,T5_M11,U1_M11,ZSPAN_M11,X0_M11,X2_M11,X1_M11
2023-02-26 05:00:00,,0821.0,5.01,0.00,22.0,20.3,00.0,30.8,23.7,14.8,0000.0,0009.13,0004.19,0003.54
2023-02-26 05:01:00,,0821.0,5.00,0.00,22.0,20.3,00.0,30.8,23.7,14.8,0000.0,0009.50,0004.25,0003.56
2023-02-26 05:02:00,,0821.0,5.00,0.00,22.0,20.3,00.0,30.8,23.8,14.8,0000.0,0009.58,0004.27,0003.58
2023-02-26 05:03:00,,0820.9,5.01,0.00,21.9,20.4,00.0,30.7,23.7,14.8,0000.0,0009.54,0004.31,0003.60
2023-02-26 05:04:00,,0821.0,4.99,0.00,21.9,20.3,00.0,30.7,23.7,14.8,0000.0,0009.18,0004.32,0003.62
2023-02-26 05:05:00,,0821.0,5.00,0.00,22.0,20.4,00.0,30.7,23.7,14.8,0000.0,0009.20,0004.33,0003.63
2023-02-26 05:06:00,,0821.0,5.00,0.00,22.0,21.3,00.0,30.7,23.9,14.8,0000.0,0009.31,0004.33,0003.62
2023-02-26 05:07:00,,0820.9,5.02,0.00,22.1,22.3,00.0,30.7,24.2,14.7,0000.0,0009.29,0004.29,0003.60
2023-02-26 05:08:00,,0820.9,4.98,0.00,22.2,22.6,00.0,30.8,24.3,14.6,0000.0,0009.45,0004.26,0003.59
2023-02-26 05:09:00,,0820.9,4.99,0.00,22.3,22.2,00.0,30.8,24.2,14.6,0000.0,0009.83,0004.27,0003.59
2023-02-26 05:10:00,,0820.9,5.01,0.00,22.3,21.8,00.0,30.8,24.2,14.6,0000.0,0009.78,0004.29,0003.60
2023-02-26 05:11:00,,0820.9,5.01,0.00,22.3,21.5,00.0,30.9,24.1,14.6,0000.0,0010.69,0004.28,0003.60
2023-02-26 05:12:00,,0820.9,5.01,0.00,22.3,21.3,00.0,30.9,24.1,14.6,0000.0,0010.42,0004.26,0003.60
2023-02-26 05:13:00,,0820.9,5.01,0.00,22.3,21.1,00.0,30.9,24.1,14.6,0000.0,0010.70,0004.28,0003.61
2023-02-26 05:14:00,,0820.9,5.00,0.00,22.3,21.0,00.0,30.9,24.1,14.6,0000.0,0010.74,0004.28,0003.61
2023-02-26 05:15:00,,0820.8,5.00,0.00,22.3,20.9,00.0,30.9,24.1,14.6,0000.0,0010.77,0004.29,0003.62
2023-02-26 05:16:00,,0820.8,5.00,0.00,22.3,20.8,00.0,30.9,24.1,14.6,0000.0,0010.81,0004.28,0003.63
2023-02-26 05:17:00,,0820.7,5.01,0.00,22.3,20.8,00.0,30.9,24.1,14.5,0000.0,0011.12,0004.32,0003.64
2023-02-26 05:18:00,,0820.7,4.99,0.00,22.2,20.7,00.0,30.9,24.0,14.6,0000.0,0011.72,0004.36,0003.68
2023-02-26 05:19:00,,0820.8,5.01,0.00,22.2,20.7,00.0,30.9,24.0,14.5,0000.0,0011.74,0004.41,0003.70
2023-02-26 05:20:00,,0820.8,5.00,0.00,22.2,20.6,00.0,31.0,24.0,14.5,0000.0,0011.41,0004.45,0003.73
2023-02-26 05:21:00,,0820.8,5.00,0.00,22.2,20.6,00.0,30.9,24.0,14.5,0000.0,0011.15,0004.45,0003.72
2023-02-26 05:22:00,,0820.8,5.00,0.00,22.2,20.6,00.0,30.9,24.0,14.5,0000.0,0009.87,0004.45,0003.71
2023-02-26 05:23:00,,0820.7,5.00,0.00,22.2,20.6,00.0,30.9,24.0,14.5,0000.0,0010.14,0004.46,0003.71
2023-02-26 05:24:00,,0820.7,5.00,0.00,22.2,20.6,00.0,30.9,24.0,14.4,0000.0,0009.90,0004.44,0003.70
2023-02-26 05:25:00,,0820.8,4.99,0.00,22.2,20.6,00.0,30.9,24.0,14.4,0000.0,0009.89,0004.46,0003.70
2023-02-26 05:26:00,,0820.8,4.98,0.00,22.2,20.6,00.0,30.9,24.0,14.4,0000.0,0009.81,0004.43,0003.68
2023-02-26 05:27:00,,0820.7,5.01,0.00,22.2,20.6,00.0,30.9,24.0,14.4,0000.0,0009.74,0004.42,0003.67
2023-02-26 05:28:00,,0820.7,4.99,0.00,22.2,20.6,00.0,30.9,24.0,14.4,0000.0,0009.87,0004.43,0003.66
2023-02-26 05:29:00,,0820.7,5.00,0.00,22.2,20.5,00.0,30.9,24.0,14.4,0000.0,0009.45,0004.40,0003.63
2023-02-26 05:30:00,,0820.6,5.00,0.00,22.2,20.5,00.0,30.9,23.9,14.5,0000.0,0009.24,0004.37,0003.60
2023-02-26 05:31:00,,0820.6,5.00,0.00,22.2,20.5,00.0,30.9,23.9,14.5,0000.0,0009.40,0004.31,0003.58
2023-02-26 05:32:00,,0820.6,5.00,0.00,22.2,20.5,00.0,30.9,23.9,14.5,0000.0,0009.30,0004.26,0003.56
2023-02-26 05:33:00,,0820.6,5.00,0.00,22.2,20.5,00.0,30.9,23.9,14.4,0000.0,0010.21,0004.25,0003.56
2023-02-26 05:34:00,,0820.6,4.99,0.00,22.1,20.4,00.0,30.9,23.9,14.4,0000.0,0010.46,0004.21,0003.54
2023-02-26 05:35:00,,0820.6,4.99,0.00,22.1,20.4,00.0,30.9,23.9,14.4,0000.0,0010.14,0004.15,0003.52
2023-02-26 05:36:00,,0820.6,5.00,0.00,22.1,20.4,00.0,30.9,23.9,14.3,0000.0,0010.27,0004.11,0003.50
2023-02-26 05:37:00,,0820.6,5.00,0.00,22.1,20.4,00.0,30.9,23.9,14.3,0000.0,0010.87,0004.10,0003.47
2023-02-26 05:38:00,,0820.6,5.00,0.00,22.1,20.4,00.0,30.9,23.9,14.4,0000.0,0011.02,0004.09,0003.45
2023-02-26 05:39:00,,0820.6,5.00,0.00,22.1,20.4,00.0,30.9,23.9,14.4,0000.0,0010.73,0004.05,0003.43
2023-02-26 05:40:00,,0820.6,5.01,0.00,22.1,20.4,00.0,30.9,23.9,14.4,0000.0,0010.31,0004.00,0003.40
2023-02-26 05:41:00,,0820.6,5.00,0.00,22.1,20.4,00.0,30.8,23.9,14.4,0000.0,0010.53,0003.95,0003.38
2023-02-26 05:42:00,,0820.6,5.04,0.00,22.1,20.4,00.0,30.8,23.9,14.4,0000.0,0010.25,0003.95,0003.35
2023-02-26 05:43:00,,0820.6,4.99,0.00,22.1,20.4,00.0,30.8,23.9,14.4,0000.0,0010.35,0003.91,0003.33
2023-02-26 05:44:00,,0820.6,5.00,0.00,22.1,20.5,00.0,30.8,23.8,14.4,0000.0,0009.55,0003.89,0003.31
2023-02-26 05:45:00,,0820.6,5.01,0.00,22.1,20.5,00.0,30.8,23.8,14.4,0000.0,0009.13,0003.87,0003.29
2023-02-26 05:46:00,,0820.6,5.02,0.00,22.0,20.5,00.0,30.8,23.8,14.5,0000.0,0009.20,0003.87,0003.28
2023-02-26 05:47:00,,0820.6,4.99,0.00,22.1,21.3,00.0,30.8,24.0,14.4,0000.0,0008.94,0003.84,0003.27
2023-02-26 05:48:00,,0820.6,5.04,0.00,22.2,22.5,00.0,30.8,24.3,14.4,0000.0,0008.29,0003.78,0003.26
2023-02-26 05:49:00,,0820.6,4.99,0.00,22.3,22.9,00.0,30.8,24.5,14.3,0000.0,0008.25,0003.79,0003.24
2023-02-26 05:50:00,,0820.5,5.02,0.00,22.4,22.5,00.0,30.9,24.4,14.2,0000.0,0008.32,0003.78,0003.23
2023-02-26 05:51:00,,0820.6,5.03,0.00,22.4,22.1,00.0,30.9,24.3,14.2,0000.0,0008.38,0003.79,0003.22
2023-02-26 05:52:00,,0820.6,5.01,0.00,22.4,21.8,00.0,31.0,24.3,14.1,0000.0,0007.93,0003.75,0003.22
2023-02-26 05:53:00,,0820.6,5.00,0.00,22.4,21.5,00.0,31.0,24.3,14.0,0000.0,0007.81,0003.71,0003.20
2023-02-26 05:54:00,,0820.6,4.99,0.00,22.4,21.3,00.0,31.0,24.2,14.0,0000.0,0007.46,0003.72,0003.19
2023-02-26 05:55:00,,0820.6,5.00,0.00,22.4,21.2,00.0,31.0,24.2,14.0,0000.0,0007.59,0003.71,0003.18
2023-02-26 05:56:00,,0820.6,5.01,0.00,22.4,21.1,00.0,31.0,24.2,14.0,0000.0,0007.68,0003.70,0003.18
2023-02-26 05:57:00,,0820.6,5.00,0.00,22.4,21.0,00.0,31.0,24.2,13.9,0000.0,0007.85,0003.68,0003.16
2023-02-26 05:58:00,,0820.6,5.00,0.00,22.4,20.9,00.0,31.0,24.2,13.9,0000.0,0007.86,0003.67,0003.14
2023-02-26 05:59:00,,0820.4,5.00,0.00,22.4,20.9,00.0,31.1,24.2,13.9,0000.0,0007.84,0003.67,0003.14
